Lid_Strength_Index
2 1 1 1 1 1 1 2 1 1 1 1 1 1 1 1 2 1 2 2 1 1 1 0 -0 0 1 1 1 1 1 2 2 2 2 2 3 2 2 2 2 2 2
1 1 1 1 1 1 1 1 1 1 1 0 1 0 1 1 1 2 3 3 2 2 1 1 1 1 1 1 1 1 1 2 2 2 2 3 3 3 3 2 2 2 2
1 1 1 2 1 1 1 1 1 1 1 0 1 0 0 1 2 2 4 5 4 2 2 2 3 2 2 2 2 2 2 2 3 3 3 3 3 3 3 3 2 2 2
1 2 2 2 0 1 1 2 2 1 1 1 1 1 0 2 3 5 5 7 6 6 4 4 4 3 3 2 2 2 2 3 3 3 3 3 3 3 3 3 2 2 2
0 1 1 1 0 1 2 2 3 1 1 1 2 2 2 3 4 7 8 8 7 6 7 6 6 5 4 3 3 2 3 3 3 4 4 4 4 3 3 3 2 2 3
1 1 2 1 1 2 2 2 2 1 1 1 2 1 2 3 6 9 9 8 8 9 10 10 10 8 6 5 4 3 3 3 4 4 4 4 4 3 3 3 3 3 2
1 1 1 1 2 1 1 1 1 1 1 1 3 3 5 7 9 10 9 9 9 10 11 11 10 11 10 6 5 4 4 4 4 4 4 4 4 3 3 3 3 3 3
1 1 1 1 1 1 1 2 1 2 1 2 4 5 6 6 8 10 10 9 9 10 11 11 11 11 11 11 9 6 5 5 5 5 5 4 4 3 3 3 3 3 3
1 1 1 1 1 1 1 1 2 2 2 2 3 4 8 8 8 9 11 11 10 10 11 11 11 11 11 12 10 9 7 7 6 6 5 5 4 4 4 4 4 3 3
1 1 0 0 1 1 1 1 0 1 2 3 4 4 6 8 10 11 11 12 11 11 12 12 12 11 11 12 10 9 8 8 8 7 6 5 5 4 4 4 4 4 4
1 1 1 1 1 1 1 2 2 2 2 3 4 6 8 9 9 11 13 13 11 11 12 12 12 12 11 12 12 10 9 9 8 8 7 6 6 5 5 5 4 4 4
1 2 1 1 1 1 2 2 2 2 3 3 4 7 8 9 11 12 13 14 13 12 12 12 12 12 11 11 10 10 10 9 9 8 7 7 7 6 6 5 5 5 5
3 2 2 2 2 2 3 3 4 4 4 5 6 8 9 10 10 11 12 13 14 12 12 12 12 12 11 11 12 11 11 10 9 8 8 7 7 7 7 6 6 5 5
2 2 2 1 2 3 4 5 6 7 8 7 9 10 11 11 11 11 12 13 14 14 13 13 12 12 11 11 11 11 13 11 10 9 8 8 8 7 7 7 6 6 6
2 5 4 3 4 4 5 6 7 9 10 10 11 12 11 12 12 12 12 12 12 14 13 13 13 12 11 12 12 13 13 11 10 10 9 8 8 8 7 7 7 7 7
3 5 5 4 5 6 7 7 10 11 11 11 12 13 13 12 12 12 12 12 12 12 14 12 13 12 11 12 12 13 13 11 11 10 10 9 8 8 8 8 8 8 7
4 5 5 5 7 8 9 10 11 12 11 12 12 13 13 12 13 13 12 12 12 12 13 14 12 12 12 13 13 13 13 13 13 10 9 9 9 8 8 8 8 8 8
6 6 7 7 8 8 10 10 12 11 12 13 14 13 14 13 14 13 13 13 13 13 14 14 13 14 13 13 14 14 13 12 13 11 9 9 9 9 9 9 9 9 9
8 9 9 8 9 9 10 11 10 12 12 12 13 13 13 13 14 15 14 13 13 13 13 15 15 13 13 14 15 15 14 14 12 11 10 10 10 9 9 9 10 9 9
9 9 9 9 9 10 10 11 12 12 13 13 13 12 14 13 14 14 13 13 14 14 14 15 15 14 14 14 16 16 16 15 15 13 12 12 11 10 10 10 10 10 9
10 10 10 11 11 11 11 12 12 12 13 14 13 13 13 13 13 12 13 14 13 14 15 15 15 15 15 15 15 15 15 15 15 15 16 16 15 14 14 12 11 9 9
12 12 12 12 12 11 10 11 12 13 13 13 14 14 13 14 13 11 11 11 11 13 14 15 15 14 14 14 15 16 15 16 17 15 15 15 15 16 15 14 10 10 10
13 13 13 14 13 12 10 10 11 12 12 13 14 14 15 15 14 13 11 10 11 11 11 13 14 14 14 14 15 16 15 15 16 15 16 18 16 17 16 13 10 10 10
14 14 14 13 13 13 10 10 12 13 13 13 13 14 14 14 14 14 13 14 14 13 12 12 13 13 13 13 14 14 15 15 15 15 16 19 17 17 16 16 11 10 10
15 15 15 14 14 14 11 11 12 13 14 14 14 14 14 15 13 12 14 14 14 14 12 11 11 12 11 11 13 14 16 17 18 17 17 18 18 19 18 17 14 11 10
14 15 14 14 14 14 11 11 13 14 14 15 15 15 14 14 13 12 14 15 15 14 14 14 13 12 12 13 11 13 16 19 19 20 17 18 19 20 21 18 17 19 14